User: anonymous   Login
Location: Allonne
(49.4086°N, 2.1143°E)
Time: 23:29:38
(UTC+00:00)
Language:

COSMOS 2428 - Orbit

View from above orbital plane
View from above orbital plane
View from above satellite
View from above satellite

Ground track
Ground track

The orbit data is extracted from the following two-line orbital elements,

1 31792U 07029A   23156.42360714 -.00000158  00000-0 -59181-4 0  9998
2 31792  70.9291 159.4739 0009350 254.5496 105.4592 14.12545790821692
Epoch (UTC): 05 June 2023 10:09:59
Eccentricity: 0.0009350
inclination: 70.9291°
perigee height: 844 km
apogee height: 857 km
right ascension of ascending node: 159.4739°
argument of perigee: 254.5496°
revolutions per day: 14.12545790
mean anomaly at epoch: 105.4592°
orbit number at epoch: 82169

The dashed part of the orbit path shows where the satellite is in the earth's shadow,  

DLR